Weather in Kekra

Russia / Khabarovsk Krai     58°01′29″N   140°05′46″E
temp.,
°C
wind,
m/s
gust,
m/s
humid.,
%
clouds,
%
prec.,
mm/h
press.,
hPa
HPBL,
m
27 february, sat
sat2701:00−29wnw54860 0.0 102833
04:00−29wnw44820 0.0 102831
07:00−29wnw43805 0.0 102826
10:00−26wnw43792 0.0 102867
13:00−22nw22750 0.0 1026122
16:00−21nw11820 0.0 102524
19:00−28nw11850 0.0 102520
22:00−27sse118217 0.0 102420
28 february, sun
sun2801:00−26se227998 0.0 102220
04:00−26ese118299 0.0 102019
07:00−26e1191100 0.0 102020
10:00−23ene1196100 0.0 1018103
13:00−21ne2294100 0.2 1017226
16:00−21n3396100 0.4 1016224
19:00−22nw3397100 0.3 101739
22:00−22wnw3395100 0.3 101739
1 march, mon
mon101:00−24wnw4496100 0.1 101786
04:00−25wnw5695100 0.3 1017210
07:00−28wnw6794100 0.1 1017271
10:00−28wnw7991100 0.3 1017561
13:00−27wnw7990100 0.1 1017583
16:00−27wnw71092100 0.3 1017651
19:00−29wnw71193100 0.1 1018617
22:00−29wnw7893100 0.3 1018427
2 march, tue
tue201:00−30wnw6893100 0.1 1017396
04:00−30wnw6693100 0.2 1018248
07:00−31wnw5593100 0.1 1018225
10:00−30wnw5689100 0.1 1019473
13:00−29wnw5685100 0.1 1019513
16:00−28wnw5688100 0.1 1019633
19:00−30wnw5594100 0.1 1020150
22:00−31wnw4493100 0.1 102185
3 march, wed
wed301:00−32wnw4494100 0.0 102160
04:00−32wnw4494100 0.1 102060
07:00−33wnw4494100 0.0 102050
10:00−32nw449399 0.0 1019135
13:00−29nw448964 0.0 1017209
16:00−29nw449070 0.0 1016199
19:00−33wnw43910 0.0 101525
22:00−33wnw43890 0.0 101424